Weather History for LKMT - November, 2012

Change the Weather History Date:

Monday, November 19, 2012

  Actual Average (EPKT) Record (EPKT)
Temperature  
Mean Temperature 42 °F -  
Max Temperature 47 °F 39 °F 53 °F (2006)
Min Temperature 36 °F 29 °F 23 °F (2011)
Degree Days  
Heating Degree Days 24    
Moisture  
Dew Point 40 °F    
Average Humidity 88    
Maximum Humidity 100    
Minimum Humidity 73    
Precipitation  
Precipitation 0.00 in 0.05 in - ()
Sea Level Pressure  
Sea Level Pressure 30.13 in    
Wind  
Wind Speed 6 mph ()    
Max Wind Speed 11 mph    
Max Gust Speed -    
Visibility 3.2 miles    
Events      
Averages and records for this station are not official NWS values.
T = Trace of Precipitation, MM = Missing Value Source: Averaged Metar Reports

Daily Weather History Graph

Daily Weather History Graph

Search for Another Location

Airport or City:

Trip Planner

Search our weather history database for the weather conditions in past years. The results will help you decide how hot, cold, wet, or windy it might be!

Date:

Astronomy

Nov. 19, 2012 Rise Set
Actual Time 7:06 AM CET 3:59 PM CET
Civil Twilight 6:30 AM CET 4:35 PM CET
Nautical Twilight 5:50 AM CET 5:14 PM CET
Astronomical Twilight 5:12 AM CET 5:52 PM CET
Moon 11:47 AM CET (11/19) 10:20 PM CET (11/19)
Length of Visible Light 10h 05m
Length of Day
8h 53m
Waxing Crescent, 38% of the Moon is Illuminated
Nov 19
Waxing Crescent
Nov 20
First Quarter
Nov 28
Full
Dec 6
Last Quarter
Dec 13
New

Hourly Weather History & Observations

Time (CET) Temp. Windchill Dew Point Humidity Pressure Visibility Wind Dir Wind Speed Gust Speed Precip Events Conditions
12:00 AM 44.6 °F 39.2 °F 41.0 °F 87% 30.06 in 5.0 mi SSW 10.4 mph - N/A   Overcast
12:30 AM 42.8 °F 37.0 °F 39.2 °F 87% 30.06 in 4.3 mi SSW 10.4 mph - N/A   Scattered Clouds
1:00 AM 41 °F - 39 °F 89% 30.10 in 4 mi SW 11.2 mph - -   Mist
1:00 AM 41.0 °F 34.7 °F 39.2 °F 93% 30.06 in 4.3 mi SW 10.4 mph - N/A   Partly Cloudy
1:30 AM 41.0 °F 34.7 °F 39.2 °F 93% 30.06 in 3.7 mi SW 10.4 mph - N/A   Partly Cloudy
2:00 AM 39.2 °F 33.6 °F 37.4 °F 93% 30.06 in 3.1 mi SW 8.1 mph - N/A   Partly Cloudy
2:30 AM 39.2 °F 33.0 °F 37.4 °F 93% 30.06 in 3.1 mi SW 9.2 mph - N/A   Partly Cloudy
3:00 AM 41.0 °F 35.8 °F 39.2 °F 93% 30.06 in 3.1 mi SSW 8.1 mph - N/A   Mist
3:30 AM 41.0 °F 35.2 °F 39.2 °F 93% 30.06 in 2.8 mi SW 9.2 mph - N/A   Mist
4:00 AM 37.4 °F 32.1 °F 35.6 °F 93% 30.09 in 2.5 mi SW 6.9 mph - N/A   Partly Cloudy
4:30 AM 37.4 °F 33.8 °F 35.6 °F 93% 30.09 in 2.5 mi WSW 4.6 mph - N/A   Mostly Cloudy
5:00 AM 39.2 °F 35.9 °F 39.2 °F 100% 30.09 in 2.2 mi WSW 4.6 mph - N/A   Mostly Cloudy
5:30 AM 39.2 °F - 39.2 °F 100% 30.09 in 2.2 mi Variable 1.2 mph - N/A   Mostly Cloudy
6:00 AM 39.2 °F - 39.2 °F 100% 30.09 in 2.2 mi Variable 2.3 mph - N/A   Mostly Cloudy
6:30 AM 41.0 °F 39.0 °F 39.2 °F 93% 30.12 in 2.5 mi South 3.5 mph - N/A   Overcast
7:00 AM 41 °F - 39 °F 92% 30.16 in 2 mi South 4.5 mph - -   Mist
7:00 AM 41.0 °F 39.0 °F 39.2 °F 93% 30.12 in 2.5 mi South 3.5 mph - N/A   Overcast
7:30 AM 41.0 °F 38.0 °F 39.2 °F 93% 30.12 in 2.5 mi South 4.6 mph - N/A   Overcast
8:00 AM 41.0 °F - 39.2 °F 93% 30.12 in 2.5 mi Variable 2.3 mph - N/A   Overcast
8:30 AM 42.8 °F 40.1 °F 41.0 °F 93% 30.12 in 2.5 mi SE 4.6 mph - N/A   Overcast
9:00 AM 42.8 °F - 41.0 °F 93% 30.15 in 2.5 mi Calm Calm - N/A   Overcast
9:30 AM 42.8 °F - 41.0 °F 93% 30.15 in 2.5 mi Variable 2.3 mph - N/A   Overcast
10:00 AM 44.6 °F - 42.8 °F 93% 30.15 in 2.5 mi Variable 2.3 mph - N/A   Mostly Cloudy
10:30 AM 46.4 °F - 42.8 °F 87% 30.15 in 2.5 mi Variable 2.3 mph - N/A   Mostly Cloudy
11:00 AM 46.4 °F 45.2 °F 41.0 °F 81% 30.15 in 3.7 mi NNE 3.5 mph - N/A   Mostly Cloudy
11:30 AM 46.4 °F 44.3 °F 41.0 °F 81% 30.15 in 5.0 mi North 4.6 mph - N/A   Mostly Cloudy
12:00 PM 48.2 °F - 41.0 °F 76% 30.15 in 5.0 mi NNE 4.6 mph - N/A   Scattered Clouds
12:30 PM 48.2 °F - 41.0 °F 76% 30.12 in 5.0 mi North 4.6 mph - N/A   Partly Cloudy
1:00 PM 47 °F - 41 °F 73% 30.17 in 5 mi NNE 6.7 mph - -   Mist
1:00 PM 48.2 °F - 41.0 °F 76% 30.12 in 5.0 mi NNE 5.8 mph - N/A   Unknown
1:30 PM 48.2 °F - 41.0 °F 76% 30.12 in 5.0 mi NNE 6.9 mph - N/A   Unknown
2:00 PM 48.2 °F - 41.0 °F 76% 30.12 in 5.0 mi NNE 8.1 mph - N/A   Unknown
2:30 PM 46.4 °F 42.9 °F 41.0 °F 81% 30.12 in 5.0 mi NNE 6.9 mph - N/A   Unknown
3:00 PM 46.4 °F 43.5 °F 41.0 °F 81% 30.15 in 3.7 mi NNE 5.8 mph - N/A   Mostly Cloudy
3:30 PM 46.4 °F 43.5 °F 41.0 °F 81% 30.15 in 3.7 mi NNE 5.8 mph - N/A   Mostly Cloudy
4:00 PM 46.4 °F 43.5 °F 41.0 °F 81% 30.15 in 3.7 mi NNE 5.8 mph - N/A   Overcast
4:30 PM 46.4 °F 43.5 °F 41.0 °F 81% 30.15 in 3.1 mi NNE 5.8 mph - N/A   Overcast
5:00 PM 44.6 °F 41.4 °F 41.0 °F 87% 30.15 in 2.8 mi North 5.8 mph - N/A   Overcast
5:30 PM 44.6 °F 40.7 °F 41.0 °F 87% 30.15 in 2.8 mi North 6.9 mph - N/A   Overcast
6:00 PM 44.6 °F 41.4 °F 41.0 °F 87% 30.15 in 2.8 mi NNE 5.8 mph - N/A   Overcast
6:30 PM 44.6 °F 41.4 °F 41.0 °F 87% 30.15 in 2.8 mi North 5.8 mph - N/A   Overcast
7:00 PM 44 °F - 41 °F 87% 30.20 in 2 mi NNE 6.7 mph - -   Mist
7:00 PM 44.6 °F 41.4 °F 41.0 °F 87% 30.15 in 2.5 mi NNE 5.8 mph - N/A   Overcast
7:30 PM 44.6 °F 42.2 °F 41.0 °F 87% 30.15 in 2.5 mi North 4.6 mph - N/A   Overcast
8:00 PM 44.6 °F 42.2 °F 41.0 °F 87% 30.15 in 2.2 mi North 4.6 mph - N/A   Overcast
8:30 PM 44.6 °F 42.2 °F 41.0 °F 87% 30.15 in 2.2 mi NNE 4.6 mph - N/A   Mostly Cloudy
9:00 PM 44.6 °F 42.2 °F 41.0 °F 87% 30.15 in 2.2 mi North 4.6 mph - N/A   Mostly Cloudy
9:30 PM 44.6 °F 42.2 °F 41.0 °F 87% 30.15 in - North 4.6 mph - N/A   Mostly Cloudy
10:00 PM 44.6 °F 43.1 °F 41.0 °F 87% 30.15 in - NNE 3.5 mph - N/A   Mostly Cloudy
10:30 PM 44.6 °F 43.1 °F 41.0 °F 87% 30.15 in - NNE 3.5 mph - N/A   Mostly Cloudy
11:00 PM 44.6 °F - 41.0 °F 87% 30.18 in - North 2.3 mph - N/A   Mostly Cloudy
11:30 PM 44.6 °F 43.1 °F 41.0 °F 87% 30.18 in - NNW 3.5 mph - N/A   Mostly Cloudy